Find Starlink 33534

NORAD ID: 63499 Int'l Des: 2025-071 Owner: SPXS Country: US Constellation: starlink operational
LEOCIRCULAR

現在のビュー

3D地球を読み込み中...

About Starlink 33534

Starlink 33534 (NORAD 63499) is a starlink constellation satellite (v2 mini) launched Apr 7, 2025 by SPXS of US. It operates in LEO, CIRCULAR orbit with a mass of 575.00 kg.

Starlink 33534について

説明を読み込み中...

次回通過

Passes for default location (London). Set your location on the main map for personalized predictions.

高度履歴

Loading altitude history...

軌道要素

1 63499U 25071G 26169.32073064 .00019042 00000-0 62344-3 0 9993
2 63499 53.1586 32.0294 0001330 71.8506 288.2640 15.31718634 68165
Epoch: Jun 18, 2026 • Age: 15 hours

現在のステータス

高度 479.4 km
速度 7.63 km/s
衛星直下点 -27.32°S, 16.3°W
打ち上げ日 Apr 7, 2025
運用期間 1.1 years
タイプ internet

技術仕様

分類 Payload
質量 575.00 kg
乾燥質量 530.00 kg
総質量 575.00 kg
長さ 0.30 m
直径 4.10 m
スパン 29.00 m
形状 Box + pan
製造者 SPXS
バスタイプ Starlink V2MO
フェーズステータス In Orbit
所有者/国 SPXS/US

Most Searched